Tracking 19854 objects as of 23-Sep-2019
HD Live streaming from Space Station
objects crossing your sky now

STARLINK OBJ AH

Track STARLINK OBJ AH now!
10-day predictions
STARLINK OBJ AH is classified as:


NORAD ID: 44266
Int'l Code: 2019-029AH
Perigee: 555.5 km
Apogee: 558.8 km
Inclination: 53.0 °
Period: 95.7 minutes
Semi major axis: 6928 km
RCS: Unknown
Launch date: May 24, 2019
Source: United States (US)
Launch site: AIR FORCE EASTERN TEST RANGE (AFETR)
aabbcc
Your satellite tracking list
Your tracking list is empty




NASA's NSSDC Master Catalog

Two Line Element Set (TLE):
1 44266U 19029AH  19265.70869746  .00000950  00000-0  84599-4 0  9996
2 44266  52.9969 345.6109 0002351 101.7567 258.3684 15.05482941 18420
Source of the keplerian elements: AFSPC